Weather History for Lytton, BC

Change the Weather History Date:

Tuesday, February 12, 2013

  Actual Average Record
Temperature  
Mean Temperature 42 °F -  
Max Temperature 50 °F 39 °F 51 °F (2014)
Min Temperature 35 °F 26 °F 23 °F (2004)
Degree Days  
Heating Degree Days 22    
Moisture  
Dew Point 32 °F    
Average Humidity 55    
Maximum Humidity 70    
Minimum Humidity 35    
Precipitation  
Precipitation 0.02 in - - ()
Sea Level Pressure  
Sea Level Pressure 30.09 in    
Wind  
Wind Speed 19 mph ()    
Max Wind Speed 38 mph    
Max Gust Speed 51 mph    
Visibility 9.0 miles    
Events      
Averages and records for this station are not official NWS values.
T = Trace of Precipitation, MM = Missing Value Source: Averaged Metar Reports

Daily Weather History Graph

Daily Weather History Graph

Search for Another Location

Airport:

Trip Planner

Search our weather history database for the weather conditions in past years. The results will help you decide how hot, cold, wet, or windy it might be!

Date:

Astronomy

Feb. 12, 2013 Rise Set
Actual Time 7:21 AM PST 5:19 PM PST
Civil Twilight 6:48 AM PST 5:53 PM PST
Nautical Twilight 6:10 AM PST 6:31 PM PST
Astronomical Twilight 5:32 AM PST 7:09 PM PST
Moon 8:00 AM PST (2/12) 8:51 PM PST (2/12)
Length of Visible Light 11h 05m
Length of Day
9h 57m
Waxing Crescent, 8% of the Moon is Illuminated
Feb 12
Waxing Crescent
Feb 17
First Quarter
Feb 25
Full
Mar 4
Last Quarter
Mar 11
New

Hourly Weather History & Observations

Time (PST) Temp. Windchill Dew Point Humidity Pressure Visibility Wind Dir Wind Speed Gust Speed Precip Events Conditions
12:00 AM 42.8 °F 34.5 °F 32.0 °F 66% 30.19 in 9.0 mi South 18.4 mph 28.8 mph N/A   Clear
1:00 AM 42 °F - 31 °F 56% 30.20 in 9 mi South 21.9 mph - -  
1:00 AM 42.8 °F 34.3 °F 32.0 °F 66% 30.20 in 9.0 mi South 19.6 mph 32.2 mph N/A   Clear
2:00 AM 42.8 °F 34.3 °F 32.0 °F 66% 30.20 in 9.0 mi South 19.6 mph 27.6 mph N/A   Clear
3:00 AM 42.8 °F 34.5 °F 32.0 °F 66% 30.21 in 9.0 mi South 18.4 mph 25.3 mph N/A   Clear
4:00 AM 43 °F - 31 °F 52% 30.21 in 9 mi South 15.0 mph - -  
4:00 AM 42.8 °F 35.1 °F 32.0 °F 66% 30.21 in 9.0 mi South 16.1 mph 23.0 mph N/A   Clear
5:00 AM 42.8 °F 35.1 °F 33.8 °F 70% 30.21 in 9.0 mi South 16.1 mph 25.3 mph N/A   Clear
6:00 AM 42.8 °F 34.3 °F 32.0 °F 66% 30.20 in 9.0 mi South 19.6 mph 33.4 mph N/A   Clear
7:00 AM 43 °F - 33 °F 58% 30.16 in 9 mi South 17.3 mph - -  
7:00 AM 42.8 °F 34.3 °F 33.8 °F 70% 30.16 in 9.0 mi SSW 19.6 mph 25.3 mph N/A   Clear
8:00 AM 44.6 °F 36.4 °F 33.8 °F 66% 30.15 in 9.0 mi South 20.7 mph 31.1 mph N/A   Partly Cloudy
9:00 AM 46.4 °F 38.7 °F 32.0 °F 57% 30.13 in 9.0 mi SSW 20.7 mph 34.5 mph N/A   Partly Cloudy
10:00 AM 47 °F - 33 °F 46% 30.14 in 9 mi SSW 20.7 mph - -  
10:00 AM 46.4 °F 38.5 °F 33.8 °F 62% 30.14 in 9.0 mi SSW 21.9 mph 32.2 mph N/A   Mostly Cloudy
11:00 AM 48.2 °F - 33.8 °F 58% 30.13 in 9.0 mi SSW 19.6 mph 33.4 mph N/A   Mostly Cloudy
12:00 PM 50.0 °F - 33.8 °F 54% 30.10 in 9.0 mi SSW 24.2 mph 39.1 mph N/A   Scattered Clouds
1:00 PM 50 °F - 34 °F 42% 30.07 in 9 mi SSW 25.3 mph - -  
1:00 PM 50.0 °F - 33.8 °F 54% 30.07 in 9.0 mi SSW 28.8 mph 40.3 mph N/A   Partly Cloudy
2:00 PM 48.2 °F - 33.8 °F 58% 30.03 in 9.0 mi SSW 26.5 mph 43.7 mph N/A   Partly Cloudy
3:00 PM 46.4 °F 38.5 °F 33.8 °F 62% 30.02 in 9.0 mi SSW 21.9 mph 40.3 mph N/A   Partly Cloudy
4:00 PM 49 °F - 30 °F 35% 29.99 in 9 mi South 31.1 mph - -  
4:00 PM 50.0 °F - 30.2 °F 47% 29.99 in 9.0 mi South 32.2 mph 47.2 mph N/A   Partly Cloudy
5:00 PM 48.2 °F - 32.0 °F 54% 29.97 in 9.0 mi South 31.1 mph 42.6 mph N/A   Clear
6:00 PM 46.4 °F 36.1 °F 32.0 °F 57% 29.92 in 9.0 mi South 38.0 mph 50.6 mph N/A   Clear
7:00 PM 46 °F - 27 °F 35% 29.94 in 9 mi SSW 29.9 mph - -  
7:00 PM 46.4 °F 37.4 °F 26.6 °F 46% 29.94 in 9.0 mi SSW 28.8 mph 41.4 mph N/A   Clear
8:00 PM 48.2 °F - 28.4 °F 46% 29.95 in 9.0 mi SSW 34.5 mph 46.0 mph N/A   Clear
9:00 PM 48.2 °F - 28.4 °F 46% 29.95 in 9.0 mi SW 20.7 mph 39.1 mph N/A   Clear
10:00 PM 48 °F - 29 °F 35% 29.98 in 9 mi SW 18.4 mph - -  
10:00 PM 48.2 °F - 28.4 °F 46% 29.98 in 9.0 mi SW 18.4 mph 33.4 mph N/A   Clear
11:00 PM 48.2 °F - 26.6 °F 43% 30.01 in 9.0 mi SW 20.7 mph 35.7 mph N/A   Clear